CHH123 ZSPD-ZSQD

Flight info

Callsign CHH123
Flight time 0h 42m
Altitude 24600
Route ZSPD SID ODULO B221 IDVEL STAR ZSQD
Aircraft A339/H-V/N

Departure

Time 2026-05-04 13:32
Airport Shanghai Pudong International Airport (ZSPD)

Arrival

Time 2026-05-04 14:14
Airport Qingdao Jiaodong International Airport (ZSQD)
Time Latitude Longitude Altitude Speed Heading
2026-05-04 12:28 31.13779 121.80950 30 ft 0 kts 156°
2026-05-04 13:14 31.13561 121.81536 27 ft 0 kts 156°
2026-05-04 13:14 31.13802 121.80949 30 ft 0 kts 156°
2026-05-04 13:21 31.13819 121.80941 30 ft 3 kts 156°
2026-05-04 13:21 31.13843 121.80929 30 ft 3 kts 156°
2026-05-04 13:21 31.13860 121.80913 30 ft 2 kts 120°
2026-05-04 13:22 31.13862 121.80890 30 ft 3 kts 75°
2026-05-04 13:22 31.13859 121.80879 30 ft 0 kts 62°
2026-05-04 13:23 31.13859 121.80880 30 ft 0 kts 62°
2026-05-04 13:24 31.13865 121.80892 30 ft 2 kts 63°
2026-05-04 13:24 31.13882 121.80924 30 ft 6 kts 53°
2026-05-04 13:24 31.13924 121.80954 30 ft 8 kts 14°
2026-05-04 13:25 31.14067 121.80924 30 ft 13 kts 342°
2026-05-04 13:25 31.14159 121.80886 30 ft 15 kts 340°
2026-05-04 13:25 31.14266 121.80843 30 ft 17 kts 342°
2026-05-04 13:25 31.14388 121.80810 30 ft 18 kts
2026-05-04 13:26 31.14468 121.80904 30 ft 17 kts 70°
2026-05-04 13:26 31.14507 121.81046 30 ft 18 kts 73°
2026-05-04 13:26 31.14544 121.81197 30 ft 19 kts 73°
2026-05-04 13:26 31.14586 121.81352 30 ft 20 kts 70°
2026-05-04 13:27 31.14678 121.81408 30 ft 15 kts 352°
2026-05-04 13:27 31.14790 121.81374 30 ft 17 kts 341°
2026-05-04 13:27 31.14906 121.81319 30 ft 18 kts 340°
2026-05-04 13:27 31.15037 121.81277 30 ft 20 kts 345°
2026-05-04 13:28 31.15177 121.81230 29 ft 21 kts 342°
2026-05-04 13:28 31.15313 121.81177 27 ft 19 kts 341°
2026-05-04 13:28 31.15444 121.81128 28 ft 19 kts 342°
2026-05-04 13:28 31.15572 121.81081 27 ft 17 kts 343°
2026-05-04 13:29 31.15622 121.81064 27 ft 0 kts 343°
2026-05-04 13:29 31.15624 121.81063 27 ft 1 kts 343°
2026-05-04 13:29 31.15646 121.81055 27 ft 5 kts 342°
2026-05-04 13:30 31.15699 121.81036 27 ft 9 kts 350°
2026-05-04 13:30 31.15756 121.81065 27 ft 10 kts 56°
2026-05-04 13:30 31.15782 121.81155 27 ft 12 kts 91°
2026-05-04 13:30 31.15730 121.81239 27 ft 15 kts 155°
2026-05-04 13:31 31.15445 121.81350 27 ft 80 kts 161°
2026-05-04 13:31 31.14690 121.81645 30 ft 147 kts 162°
2026-05-04 13:31 31.13552 121.82059 218 ft 187 kts 162°
2026-05-04 13:31 31.12229 121.82544 577 ft 212 kts 161°
2026-05-04 13:32 31.10773 121.83096 1040 ft 229 kts 161°
2026-05-04 13:32 31.09217 121.83704 1605 ft 239 kts 161°
2026-05-04 13:32 31.07647 121.84333 2184 ft 241 kts 161°
2026-05-04 13:32 31.06075 121.85006 2793 ft 240 kts 155°
2026-05-04 13:33 31.04793 121.86224 3480 ft 244 kts 130°
2026-05-04 13:33 31.03727 121.87752 4176 ft 247 kts 132°
2026-05-04 13:33 31.02518 121.89217 4695 ft 253 kts 137°
2026-05-04 13:33 31.01187 121.90597 4934 ft 257 kts 138°
2026-05-04 13:34 30.99880 121.92010 4947 ft 258 kts 137°
2026-05-04 13:34 30.98565 121.93445 4951 ft 258 kts 137°
2026-05-04 13:34 30.97245 121.94868 4953 ft 258 kts 137°
2026-05-04 13:34 30.95906 121.96299 4965 ft 269 kts 137°
2026-05-04 13:35 30.94478 121.97885 4965 ft 294 kts 129°
2026-05-04 13:35 30.93658 122.02502 5220 ft 311 kts 72°
2026-05-04 13:35 30.94374 122.04864 6122 ft 309 kts 69°
2026-05-04 13:36 30.95060 122.07206 6946 ft 309 kts 68°
2026-05-04 13:36 30.96027 122.09389 7607 ft 309 kts 46°
2026-05-04 13:36 30.97734 122.10877 8349 ft 304 kts 21°
2026-05-04 13:36 30.99753 122.11398 9070 ft 302 kts 358°
2026-05-04 13:37 31.01801 122.10957 9778 ft 302 kts 341°
2026-05-04 13:37 31.10117 122.07769 12615 ft 305 kts 340°
2026-05-04 13:37 31.43419 121.95451 19088 ft 317 kts 336°
2026-05-04 13:37 31.65811 121.86832 21745 ft 326 kts 336°
2026-05-04 13:38 31.80302 121.81313 23270 ft 342 kts 336°
2026-05-04 13:38 31.82586 121.80440 23479 ft 353 kts 336°
2026-05-04 13:38 31.84979 121.79536 23698 ft 365 kts 338°
2026-05-04 13:38 31.87480 121.78779 23876 ft 379 kts 342°
2026-05-04 13:39 31.90093 121.78230 24068 ft 392 kts 346°
2026-05-04 13:39 31.92855 121.77854 24273 ft 404 kts 348°
2026-05-04 13:39 31.95718 121.77515 24453 ft 415 kts 348°
2026-05-04 13:39 31.98591 121.77182 24619 ft 421 kts 348°
2026-05-04 13:40 32.01514 121.76844 24631 ft 422 kts 349°
2026-05-04 13:40 32.04455 121.76504 24637 ft 423 kts 349°
2026-05-04 13:40 32.41448 121.72118 24627 ft 422 kts 349°
2026-05-04 13:40 32.87819 121.66553 24672 ft 420 kts 350°
2026-05-04 13:41 33.18203 121.62907 24607 ft 418 kts 350°
2026-05-04 13:41 33.21119 121.62550 24624 ft 417 kts 349°
2026-05-04 13:41 33.23953 121.62002 24629 ft 413 kts 344°
2026-05-04 13:42 33.29392 121.59946 24627 ft 401 kts 334°
2026-05-04 13:42 33.31912 121.58678 24628 ft 387 kts 334°
2026-05-04 13:42 33.34335 121.57430 24628 ft 373 kts 333°
2026-05-04 13:42 33.36681 121.56216 24626 ft 360 kts 333°
2026-05-04 13:43 33.38942 121.55048 24623 ft 347 kts 333°
2026-05-04 13:43 33.41140 121.53914 24622 ft 335 kts 333°
2026-05-04 13:43 33.43230 121.52836 24624 ft 326 kts 333°
2026-05-04 13:43 33.45331 121.51748 24626 ft 327 kts 333°
2026-05-04 13:44 33.47420 121.50665 24627 ft 327 kts 333°
2026-05-04 13:44 33.49511 121.49585 24629 ft 327 kts 333°
2026-05-04 13:44 33.51590 121.48510 24630 ft 327 kts 333°
2026-05-04 13:44 33.53666 121.47437 24631 ft 327 kts 333°
2026-05-04 13:45 33.55768 121.46350 24630 ft 327 kts 333°
2026-05-04 13:45 33.57850 121.45274 24630 ft 327 kts 333°
2026-05-04 13:45 33.59941 121.44192 24631 ft 328 kts 333°
2026-05-04 13:45 33.62038 121.43108 24628 ft 327 kts 333°
2026-05-04 13:46 33.76920 121.35461 24623 ft 328 kts 335°
2026-05-04 13:46 34.11526 121.19660 24614 ft 329 kts 335°
2026-05-04 13:46 34.45511 121.03020 24653 ft 329 kts 335°
2026-05-04 13:46 34.69003 120.91844 24634 ft 330 kts 335°
2026-05-04 13:47 34.71146 120.90803 24618 ft 329 kts 335°
2026-05-04 13:47 34.73262 120.89769 24618 ft 329 kts 335°
2026-05-04 13:47 34.91941 120.80656 24621 ft 329 kts 336°
2026-05-04 13:47 35.03211 120.75166 24602 ft 330 kts 336°
2026-05-04 13:48 35.05342 120.74130 24596 ft 329 kts 336°
2026-05-04 13:48 35.07458 120.73100 24401 ft 326 kts 336°
2026-05-04 13:48 35.09696 120.72006 24000 ft 326 kts 336°
2026-05-04 13:48 35.31675 120.61243 20741 ft 322 kts 338°
2026-05-04 13:49 35.33738 120.60267 20598 ft 314 kts 338°
2026-05-04 13:49 35.35768 120.59302 20452 ft 307 kts 338°
2026-05-04 13:49 35.37720 120.58362 20294 ft 300 kts 338°
2026-05-04 13:49 35.39682 120.57414 19851 ft 304 kts 338°
2026-05-04 13:50 35.41649 120.56467 19384 ft 308 kts 338°
2026-05-04 13:50 35.43664 120.55495 18956 ft 310 kts 338°
2026-05-04 13:50 35.45660 120.54532 18613 ft 309 kts 338°
2026-05-04 13:50 35.47649 120.53570 18360 ft 306 kts 338°
2026-05-04 13:51 35.49619 120.52614 18081 ft 303 kts 338°
2026-05-04 13:51 35.51583 120.51659 17786 ft 302 kts 338°
2026-05-04 13:51 35.53531 120.50711 17491 ft 300 kts 338°
2026-05-04 13:51 35.55453 120.49775 17173 ft 299 kts 338°
2026-05-04 13:52 35.59322 120.47888 16535 ft 298 kts 338°
2026-05-04 13:52 35.61266 120.46940 16210 ft 297 kts 338°
2026-05-04 13:52 35.63189 120.46000 15893 ft 297 kts 338°
2026-05-04 13:53 35.65102 120.45065 15574 ft 296 kts 338°
2026-05-04 13:53 35.67024 120.44126 15255 ft 296 kts 338°
2026-05-04 13:53 35.68925 120.43196 14926 ft 296 kts 338°
2026-05-04 13:54 35.72769 120.41314 14192 ft 299 kts 338°
2026-05-04 13:54 35.74691 120.40372 13830 ft 300 kts 338°
2026-05-04 13:54 35.78593 120.38457 13118 ft 301 kts 338°
2026-05-04 13:55 35.80528 120.37508 12737 ft 292 kts 338°
2026-05-04 13:55 35.84230 120.35690 12115 ft 286 kts 338°
2026-05-04 13:55 35.86067 120.34786 11812 ft 283 kts 338°
2026-05-04 13:56 35.87906 120.33881 11544 ft 282 kts 338°
2026-05-04 13:56 35.89710 120.32994 11321 ft 279 kts 338°
2026-05-04 13:56 35.93216 120.31268 11035 ft 266 kts 338°
2026-05-04 13:57 35.94933 120.30423 10787 ft 263 kts 338°
2026-05-04 13:57 35.96657 120.29639 10535 ft 260 kts 342°
2026-05-04 13:58 36.01888 120.28503 9794 ft 251 kts 354°
2026-05-04 13:58 36.11567 120.27395 8407 ft 246 kts 353°
2026-05-04 13:58 36.28390 120.25443 6145 ft 242 kts 348°
2026-05-04 13:59 36.30026 120.25013 5932 ft 238 kts 342°
2026-05-04 13:59 36.31573 120.24428 5812 ft 231 kts 340°
2026-05-04 13:59 36.34564 120.23257 5540 ft 218 kts 339°
2026-05-04 14:00 36.36011 120.22698 5350 ft 216 kts 340°
2026-05-04 14:00 36.58877 120.35535 5199 ft 200 kts 328°
2026-05-04 14:00 36.40701 120.31652 5275 ft 180 kts 295°
2026-05-04 14:01 36.41098 120.30156 4805 ft 192 kts 279°
2026-05-04 14:01 36.41363 120.28477 4329 ft 205 kts 279°
2026-05-04 14:01 36.42061 120.24985 3800 ft 209 kts 283°
2026-05-04 14:02 36.42551 120.23281 3565 ft 211 kts 292°
2026-05-04 14:02 36.43354 120.21758 3333 ft 214 kts 307°
2026-05-04 14:02 36.44465 120.20493 3108 ft 217 kts 320°
2026-05-04 14:02 36.45732 120.19513 3017 ft 219 kts 328°
2026-05-04 14:03 36.47109 120.18710 3014 ft 211 kts 333°
2026-05-04 14:03 36.48458 120.18060 3012 ft 206 kts 336°
2026-05-04 14:03 36.49812 120.17477 3014 ft 207 kts 338°
2026-05-04 14:03 36.51199 120.16917 3010 ft 208 kts 338°
2026-05-04 14:04 36.53814 120.15912 2977 ft 186 kts 339°
2026-05-04 14:04 36.55057 120.15437 2994 ft 187 kts 339°
2026-05-04 14:04 36.56298 120.14963 2999 ft 187 kts 339°
2026-05-04 14:05 36.58792 120.14011 3001 ft 187 kts 339°
2026-05-04 14:05 36.60050 120.13532 2999 ft 188 kts 339°
2026-05-04 14:05 36.61293 120.12994 2996 ft 186 kts 323°
2026-05-04 14:06 36.62159 120.11903 2997 ft 176 kts 289°
2026-05-04 14:06 36.62411 120.10479 3001 ft 167 kts 259°
2026-05-04 14:06 36.62129 120.09087 3006 ft 163 kts 246°
2026-05-04 14:06 36.61750 120.07763 2999 ft 163 kts 246°
2026-05-04 14:07 36.61367 120.06429 2997 ft 163 kts 246°
2026-05-04 14:07 36.60997 120.05114 2989 ft 163 kts 246°
2026-05-04 14:07 36.60631 120.03793 2976 ft 158 kts 246°
2026-05-04 14:07 36.60274 120.02505 2979 ft 156 kts 243°
2026-05-04 14:08 36.59626 120.01486 2976 ft 151 kts 206°
2026-05-04 14:08 36.58592 120.01273 2988 ft 155 kts 170°
2026-05-04 14:08 36.57561 120.01650 2997 ft 156 kts 166°
2026-05-04 14:08 36.56525 120.02058 2988 ft 155 kts 166°
2026-05-04 14:09 36.54460 120.02876 2987 ft 155 kts 166°
2026-05-04 14:09 36.53476 120.03271 2975 ft 143 kts 166°
2026-05-04 14:10 36.51619 120.04020 2789 ft 138 kts 166°
2026-05-04 14:10 36.50708 120.04381 2608 ft 136 kts 166°
2026-05-04 14:10 36.49806 120.04736 2426 ft 134 kts 166°
2026-05-04 14:10 36.48917 120.05085 2246 ft 133 kts 166°
2026-05-04 14:11 36.48041 120.05428 2069 ft 132 kts 165°
2026-05-04 14:11 36.46286 120.06111 1678 ft 131 kts 165°
2026-05-04 14:11 36.45416 120.06455 1508 ft 131 kts 164°
2026-05-04 14:12 36.44544 120.06809 1352 ft 132 kts 162°
2026-05-04 14:12 36.43673 120.07179 1194 ft 131 kts 162°
2026-05-04 14:12 36.41926 120.07855 846 ft 132 kts 165°
2026-05-04 14:13 36.41036 120.08170 659 ft 132 kts 163°
2026-05-04 14:13 36.40153 120.08509 446 ft 132 kts 162°
2026-05-04 14:13 36.39275 120.08858 233 ft 133 kts 162°
2026-05-04 14:13 36.38393 120.09206 82 ft 133 kts 162°
2026-05-04 14:14 36.37515 120.09555 37 ft 120 kts 161°
2026-05-04 14:14 36.36543 120.09943 43 ft 37 kts 162°
2026-05-04 14:14 36.36328 120.10007 44 ft 29 kts 176°